Starlink 31559

operational
NORAD ID: 59358 Int'l Des: 2024-060 Owner: SPXS Country: US Constellation: starlink
LEOCIRCULAR

Starlink 31559について

説明を読み込み中...

リアルタイム位置

3D地球を読み込み中...

次回通過

高度履歴

Altitude vs Time

uPlot chart will show altitude changes over time

軌道要素

1 59358U 24060L 25306.18134216 .00005914 00000-0 22421-3 0 9997
2 59358 43.0043 259.8239 0001504 276.8563 83.2118 15.27585754 90563
Epoch: Nov 2, 2025 • Age: 42 hours

現在のステータス

高度 484.6 km
速度 7.62 km/s
衛星直下点 -9.88°S, 67.31°E
打ち上げ日 Mar 31, 2024
運用期間 1.5 years
タイプ internet

技術仕様

分類 Payload
質量 730.00 kg
乾燥質量 700.00 kg
総質量 730.00 kg
長さ 0.30 m
直径 4.10 m
スパン 29.00 m
形状 Box + pan
製造者 SPXS
バスタイプ Starlink V2M
フェーズステータス In Orbit
所有者/国 SPXS/US

大規模コンステレーション

Loading constellations...